Time,TemperatureF,DewpointF,PressureIn,WindDirection,WindDirectionDegrees,WindSpeedMPH,WindSpeedGustMPH,Humidity,HourlyPrecipIn,Conditions,Clouds,dailyrainin,SoftwareType,DateUTC
2013-02-07 00:02:00,41.0,30.0,30.01,ESE,104,4.0,5.0,64,0.00,,,0.01,,2013-02-07 06:02:00,
2013-02-07 00:11:00,41.0,30.0,30.01,ESE,104,4.0,5.0,64,0.00,,,0.01,,2013-02-07 06:11:00,
2013-02-07 00:22:00,41.0,30.0,30.00,East,96,2.0,5.0,64,0.00,,,0.01,,2013-02-07 06:22:00,
2013-02-07 00:32:00,41.0,30.0,30.00,East,96,2.0,5.0,64,0.00,,,0.01,,2013-02-07 06:32:00,
2013-02-07 00:43:00,41.0,30.0,30.00,East,96,2.0,5.0,64,0.00,,,0.01,,2013-02-07 06:43:00,
2013-02-07 00:52:00,41.0,30.0,30.00,East,96,2.0,5.0,64,0.00,,,0.01,,2013-02-07 06:52:00,
2013-02-07 01:01:00,41.0,30.0,30.01,East,97,2.0,5.0,65,0.00,,,0.00,,2013-02-07 07:01:00,
2013-02-07 01:11:00,41.0,30.0,30.01,East,99,2.0,5.0,65,0.00,,,0.00,,2013-02-07 07:11:00,
2013-02-07 01:22:00,41.0,30.0,30.01,East,99,2.0,5.0,65,0.00,,,0.00,,2013-02-07 07:22:00,
2013-02-07 01:32:00,41.0,31.0,29.99,East,100,0.0,5.0,66,0.00,,,0.00,,2013-02-07 07:32:00,
2013-02-07 01:41:00,41.0,31.0,29.99,East,100,0.0,5.0,66,0.00,,,0.00,,2013-02-07 07:41:00,
2013-02-07 01:52:00,41.0,30.0,29.99,ESE,102,2.0,5.0,65,0.00,,,0.00,,2013-02-07 07:52:00,
2013-02-07 02:01:00,41.0,30.0,29.99,ESE,106,2.0,5.0,64,0.00,,,0.00,,2013-02-07 08:01:00,
2013-02-07 02:11:00,41.0,30.0,29.99,ESE,106,2.0,5.0,64,0.00,,,0.00,,2013-02-07 08:11:00,
2013-02-07 02:21:00,41.0,30.0,29.99,ESE,106,2.0,5.0,64,0.00,,,0.00,,2013-02-07 08:21:00,
2013-02-07 02:32:00,41.0,30.0,29.99,ESE,106,2.0,5.0,64,0.00,,,0.00,,2013-02-07 08:32:00,
2013-02-07 02:42:00,41.0,30.0,29.99,ESE,106,2.0,5.0,64,0.00,,,0.00,,2013-02-07 08:42:00,
2013-02-07 02:52:00,41.0,30.0,29.99,ESE,106,0.0,6.0,65,0.00,,,0.00,,2013-02-07 08:52:00,
2013-02-07 03:02:00,41.0,31.0,29.99,ESE,106,1.0,5.0,68,0.00,,,0.00,,2013-02-07 09:02:00,
2013-02-07 03:11:00,41.0,31.0,29.98,ESE,106,2.0,5.0,68,0.00,,,0.00,,2013-02-07 09:11:00,
2013-02-07 03:21:00,41.0,31.0,29.98,ESE,106,2.0,5.0,68,0.00,,,0.00,,2013-02-07 09:21:00,
2013-02-07 03:32:00,41.0,31.0,29.98,ESE,106,2.0,3.0,66,0.00,,,0.00,,2013-02-07 09:32:00,
2013-02-07 03:41:00,41.0,31.0,29.98,ESE,106,2.0,3.0,66,0.00,,,0.00,,2013-02-07 09:41:00,
2013-02-07 03:51:00,41.0,31.0,29.97,ESE,107,3.0,3.0,68,0.00,,,0.00,,2013-02-07 09:51:00,
2013-02-07 04:01:00,41.0,31.0,29.96,ESE,107,1.0,4.0,66,0.00,,,0.00,,2013-02-07 10:01:00,
2013-02-07 04:11:00,41.0,31.0,29.96,ESE,107,1.0,4.0,66,0.00,,,0.00,,2013-02-07 10:11:00,
2013-02-07 04:22:00,40.0,31.0,29.96,ESE,109,3.0,4.0,69,0.00,,,0.00,,2013-02-07 10:22:00,
2013-02-07 04:32:00,41.0,31.0,29.96,ESE,107,1.0,5.0,68,0.00,,,0.00,,2013-02-07 10:32:00,
2013-02-07 04:41:00,41.0,31.0,29.96,ESE,107,1.0,5.0,68,0.00,,,0.00,,2013-02-07 10:41:00,
2013-02-07 04:51:00,40.0,31.0,29.95,ESE,107,3.0,5.0,70,0.00,,,0.00,,2013-02-07 10:51:00,
2013-02-07 05:01:00,41.0,31.0,29.95,ESE,109,1.0,5.0,67,0.00,,,0.00,,2013-02-07 11:01:00,
2013-02-07 05:11:00,41.0,31.0,29.95,ESE,109,1.0,5.0,67,0.00,,,0.00,,2013-02-07 11:11:00,
2013-02-07 05:22:00,41.0,31.0,29.95,ESE,109,1.0,5.0,68,0.00,,,0.00,,2013-02-07 11:22:00,
2013-02-07 05:32:00,41.0,31.0,29.95,ESE,109,3.0,5.0,68,0.00,,,0.00,,2013-02-07 11:32:00,
2013-02-07 05:44:00,41.0,31.0,29.95,ESE,109,3.0,5.0,68,0.00,,,0.00,,2013-02-07 11:44:00,
2013-02-07 05:52:00,41.0,31.0,29.95,ESE,109,3.0,5.0,68,0.00,,,0.00,,2013-02-07 11:52:00,
2013-02-07 06:02:00,40.0,31.0,29.95,ESE,107,2.0,5.0,70,0.00,,,0.00,,2013-02-07 12:02:00,
2013-02-07 06:11:00,40.0,31.0,29.95,ESE,107,2.0,5.0,70,0.00,,,0.00,,2013-02-07 12:11:00,
2013-02-07 06:22:00,40.0,31.0,29.95,ESE,107,2.0,5.0,70,0.00,,,0.00,,2013-02-07 12:22:00,
2013-02-07 06:32:00,40.0,30.0,29.95,ESE,107,1.0,7.0,68,0.00,,,0.00,,2013-02-07 12:32:00,
2013-02-07 06:42:00,40.0,30.0,29.95,ESE,107,1.0,7.0,68,0.00,,,0.00,,2013-02-07 12:42:00,
2013-02-07 06:53:00,40.0,31.0,29.93,ESE,109,2.0,7.0,69,0.00,,,0.00,,2013-02-07 12:53:00,
2013-02-07 07:02:00,40.0,30.0,29.93,ESE,107,1.0,5.0,68,0.00,,,0.00,,2013-02-07 13:02:00,
2013-02-07 07:12:00,40.0,30.0,29.93,ESE,107,1.0,5.0,68,0.00,,,0.00,,2013-02-07 13:12:00,
2013-02-07 07:22:00,40.0,30.0,29.93,ESE,107,1.0,5.0,68,0.00,,,0.00,,2013-02-07 13:22:00,
2013-02-07 07:32:00,40.0,31.0,29.93,ESE,116,4.0,4.0,71,0.00,,,0.00,,2013-02-07 13:32:00,
2013-02-07 07:42:00,40.0,31.0,29.93,ESE,116,4.0,4.0,71,0.00,,,0.00,,2013-02-07 13:42:00,
2013-02-07 07:52:00,40.0,31.0,29.93,SE,133,1.0,3.0,70,0.00,,,0.00,,2013-02-07 13:52:00,
2013-02-07 08:01:00,40.0,31.0,29.93,South,172,1.0,5.0,69,0.00,,,0.00,,2013-02-07 14:01:00,
2013-02-07 08:11:00,40.0,31.0,29.93,South,172,1.0,5.0,69,0.00,,,0.00,,2013-02-07 14:11:00,
2013-02-07 08:21:00,42.0,33.0,29.93,SSE,165,1.0,5.0,69,0.00,,,0.00,,2013-02-07 14:21:00,
2013-02-07 08:32:00,44.0,32.0,29.93,SSE,165,2.0,5.0,62,0.00,,,0.00,,2013-02-07 14:32:00,
2013-02-07 08:42:00,44.0,32.0,29.93,SSE,165,2.0,5.0,62,0.00,,,0.00,,2013-02-07 14:42:00,
2013-02-07 08:52:00,46.0,34.0,29.93,SSE,165,1.0,5.0,62,0.00,,,0.00,,2013-02-07 14:52:00,
2013-02-07 09:02:00,47.0,34.0,29.93,SSE,165,1.0,5.0,60,0.00,,,0.00,,2013-02-07 15:02:00,
2013-02-07 09:11:00,47.0,34.0,29.93,SSE,165,1.0,5.0,60,0.00,,,0.00,,2013-02-07 15:11:00,
2013-02-07 09:22:00,48.0,34.0,29.93,South,184,1.0,5.0,59,0.00,,,0.00,,2013-02-07 15:22:00,
2013-02-07 09:32:00,51.0,36.0,29.92,SSE,168,2.0,3.0,57,0.00,,,0.00,,2013-02-07 15:32:00,
2013-02-07 09:42:00,51.0,36.0,29.92,SSE,168,2.0,3.0,57,0.00,,,0.00,,2013-02-07 15:42:00,
2013-02-07 09:52:00,54.0,39.0,29.92,WSW,243,2.0,3.0,56,0.00,,,0.00,,2013-02-07 15:52:00,
2013-02-07 10:01:00,56.0,40.0,29.92,South,181,2.0,7.0,54,0.00,,,0.00,,2013-02-07 16:01:00,
2013-02-07 10:11:00,56.0,40.0,29.92,South,181,2.0,7.0,54,0.00,,,0.00,,2013-02-07 16:11:00,
2013-02-07 10:21:00,56.0,41.0,29.91,SW,220,5.0,7.0,56,0.00,,,0.00,,2013-02-07 16:21:00,
2013-02-07 10:32:00,57.0,42.0,29.91,WSW,239,8.0,14.0,58,0.00,,,0.00,,2013-02-07 16:32:00,
2013-02-07 10:41:00,57.0,42.0,29.91,WSW,239,8.0,14.0,58,0.00,,,0.00,,2013-02-07 16:41:00,
2013-02-07 10:52:00,57.0,42.0,29.91,SSW,198,5.0,14.0,58,0.00,,,0.00,,2013-02-07 16:52:00,
2013-02-07 11:01:00,58.0,42.0,29.91,SSW,210,6.0,14.0,55,0.00,,,0.00,,2013-02-07 17:01:00,
2013-02-07 11:11:00,59.0,43.0,29.91,SW,219,7.0,14.0,55,0.00,,,0.00,,2013-02-07 17:11:00,
2013-02-07 11:21:00,59.0,43.0,29.91,SW,219,7.0,14.0,55,0.00,,,0.00,,2013-02-07 17:21:00,
2013-02-07 11:32:00,61.0,44.0,29.89,SSW,193,10.0,17.0,54,0.00,,,0.00,,2013-02-07 17:32:00,
2013-02-07 11:42:00,61.0,44.0,29.89,SSW,193,10.0,17.0,54,0.00,,,0.00,,2013-02-07 17:42:00,
2013-02-07 11:52:00,61.0,44.0,29.88,SW,223,7.0,17.0,54,0.00,,,0.00,,2013-02-07 17:52:00,
2013-02-07 12:01:00,60.0,44.0,29.87,SW,220,2.0,12.0,56,0.00,,,0.00,,2013-02-07 18:01:00,
2013-02-07 12:11:00,60.0,44.0,29.87,SW,220,2.0,12.0,56,0.00,,,0.00,,2013-02-07 18:11:00,
2013-02-07 12:23:00,60.0,46.0,29.87,SSW,213,3.0,12.0,59,0.00,,,0.00,,2013-02-07 18:23:00,
2013-02-07 12:32:00,61.0,47.0,29.86,SSW,195,2.0,13.0,60,0.00,,,0.00,,2013-02-07 18:32:00,
2013-02-07 12:41:00,61.0,47.0,29.86,SSW,195,2.0,13.0,60,0.00,,,0.00,,2013-02-07 18:41:00,
2013-02-07 12:52:00,62.0,46.0,29.85,WSW,240,6.0,13.0,56,0.00,,,0.00,,2013-02-07 18:52:00,
2013-02-07 13:01:00,64.0,47.0,29.85,WNW,288,7.0,13.0,55,0.00,,,0.00,,2013-02-07 19:01:00,
2013-02-07 13:11:00,63.0,47.0,29.84,WSW,256,6.0,13.0,56,0.00,,,0.00,,2013-02-07 19:11:00,
2013-02-07 13:22:00,63.0,47.0,29.84,WSW,256,6.0,13.0,56,0.00,,,0.00,,2013-02-07 19:22:00,
2013-02-07 13:32:00,63.0,47.0,29.84,WSW,256,6.0,13.0,56,0.00,,,0.00,,2013-02-07 19:32:00,
2013-02-07 13:41:00,63.0,47.0,29.84,WSW,256,6.0,13.0,56,0.00,,,0.00,,2013-02-07 19:41:00,
2013-02-07 13:51:00,64.0,48.0,29.83,WNW,284,4.0,19.0,56,0.00,,,0.00,,2013-02-07 19:51:00,
2013-02-07 14:01:00,64.0,48.0,29.82,SW,230,8.0,13.0,57,0.00,,,0.00,,2013-02-07 20:01:00,
2013-02-07 14:11:00,64.0,48.0,29.82,SW,230,8.0,13.0,57,0.00,,,0.00,,2013-02-07 20:11:00,
2013-02-07 14:22:00,63.0,48.0,29.81,SW,215,10.0,13.0,58,0.00,,,0.00,,2013-02-07 20:22:00,
2013-02-07 14:31:00,64.0,48.0,29.81,SW,236,3.0,13.0,57,0.00,,,0.00,,2013-02-07 20:31:00,
2013-02-07 14:41:00,64.0,48.0,29.81,SW,236,3.0,13.0,57,0.00,,,0.00,,2013-02-07 20:41:00,
2013-02-07 14:52:00,65.0,48.0,29.80,WNW,289,5.0,13.0,55,0.00,,,0.00,,2013-02-07 20:52:00,
2013-02-07 15:02:00,65.0,47.0,29.80,West,271,1.0,14.0,53,0.00,,,0.00,,2013-02-07 21:02:00,
2013-02-07 15:11:00,65.0,47.0,29.80,West,271,1.0,14.0,53,0.00,,,0.00,,2013-02-07 21:11:00,
2013-02-07 15:21:00,64.0,48.0,29.80,SW,232,7.0,14.0,57,0.00,,,0.00,,2013-02-07 21:21:00,
2013-02-07 15:32:00,63.0,48.0,29.80,SW,232,0.0,12.0,58,0.00,,,0.00,,2013-02-07 21:32:00,
2013-02-07 15:42:00,63.0,48.0,29.80,SW,232,0.0,12.0,58,0.00,,,0.00,,2013-02-07 21:42:00,
2013-02-07 15:52:00,63.0,48.0,29.80,SW,236,2.0,12.0,58,0.00,,,0.00,,2013-02-07 21:52:00,
2013-02-07 16:02:00,63.0,48.0,29.79,WSW,246,1.0,8.0,58,0.00,,,0.00,,2013-02-07 22:02:00,
2013-02-07 16:11:00,63.0,48.0,29.78,WSW,247,2.0,8.0,58,0.00,,,0.00,,2013-02-07 22:11:00,
2013-02-07 16:21:00,63.0,48.0,29.78,WSW,247,2.0,8.0,58,0.00,,,0.00,,2013-02-07 22:21:00,
2013-02-07 16:32:00,63.0,48.0,29.78,WSW,247,2.0,8.0,58,0.00,,,0.00,,2013-02-07 22:32:00,
2013-02-07 16:42:00,63.0,48.0,29.78,WSW,247,2.0,8.0,58,0.00,,,0.00,,2013-02-07 22:42:00,
2013-02-07 16:51:00,63.0,49.0,29.78,WSW,253,0.0,7.0,60,0.00,,,0.00,,2013-02-07 22:51:00,
2013-02-07 17:01:00,62.0,49.0,29.78,WSW,253,0.0,7.0,62,0.00,,,0.00,,2013-02-07 23:01:00,
2013-02-07 17:11:00,62.0,49.0,29.78,WSW,253,0.0,7.0,62,0.00,,,0.00,,2013-02-07 23:11:00,
2013-02-07 17:21:00,61.0,49.0,29.78,WSW,251,0.0,7.0,65,0.00,,,0.00,,2013-02-07 23:21:00,
2013-02-07 17:32:00,60.0,48.0,29.78,WSW,251,0.0,3.0,65,0.00,,,0.00,,2013-02-07 23:32:00,
2013-02-07 17:41:00,60.0,48.0,29.78,WSW,251,0.0,3.0,65,0.00,,,0.00,,2013-02-07 23:41:00,
2013-02-07 17:52:00,59.0,48.0,29.78,WSW,253,0.0,3.0,66,0.00,,,0.00,,2013-02-07 23:52:00,
2013-02-07 18:01:00,59.0,48.0,29.78,WSW,251,2.0,2.0,67,0.00,,,0.00,,2013-02-08 00:01:00,
2013-02-07 18:11:00,59.0,48.0,29.78,WSW,251,2.0,2.0,67,0.00,,,0.00,,2013-02-08 00:11:00,
2013-02-07 18:21:00,58.0,47.0,29.79,WSW,251,0.0,2.0,68,0.00,,,0.00,,2013-02-08 00:21:00,
2013-02-07 18:32:00,58.0,48.0,29.79,WSW,251,0.0,3.0,69,0.00,,,0.00,,2013-02-08 00:32:00,
2013-02-07 18:41:00,58.0,48.0,29.79,WSW,251,0.0,3.0,69,0.00,,,0.00,,2013-02-08 00:41:00,
2013-02-07 18:52:00,57.0,47.0,29.80,WSW,251,0.0,3.0,70,0.00,,,0.00,,2013-02-08 00:52:00,
2013-02-07 19:01:00,56.0,48.0,29.80,WSW,253,0.0,0.0,74,0.00,,,0.00,,2013-02-08 01:01:00,
2013-02-07 19:11:00,56.0,48.0,29.80,WSW,253,0.0,0.0,74,0.00,,,0.00,,2013-02-08 01:11:00,
2013-02-07 19:21:00,55.0,47.0,29.80,WSW,253,0.0,0.0,75,0.00,,,0.00,,2013-02-08 01:21:00,
2013-02-07 19:31:00,55.0,48.0,29.80,WSW,251,0.0,0.0,77,0.00,,,0.00,,2013-02-08 01:31:00,
2013-02-07 19:41:00,55.0,48.0,29.80,WSW,251,0.0,0.0,77,0.00,,,0.00,,2013-02-08 01:41:00,
2013-02-07 19:51:00,54.0,48.0,29.80,WSW,251,0.0,0.0,79,0.00,,,0.00,,2013-02-08 01:51:00,
2013-02-07 20:01:00,54.0,48.0,29.79,WSW,251,0.0,2.0,80,0.00,,,0.00,,2013-02-08 02:01:00,
2013-02-07 20:11:00,54.0,48.0,29.79,WSW,251,0.0,2.0,80,0.00,,,0.00,,2013-02-08 02:11:00,
2013-02-07 20:21:00,55.0,48.0,29.79,WSW,253,1.0,2.0,77,0.00,,,0.00,,2013-02-08 02:21:00,
2013-02-07 20:32:00,55.0,48.0,29.79,WSW,253,1.0,3.0,77,0.00,,,0.00,,2013-02-08 02:32:00,
2013-02-07 20:42:00,55.0,48.0,29.79,WSW,253,1.0,3.0,77,0.00,,,0.00,,2013-02-08 02:42:00,
2013-02-07 20:52:00,55.0,48.0,29.79,WSW,251,0.0,3.0,77,0.00,,,0.00,,2013-02-08 02:52:00,
2013-02-07 21:01:00,56.0,49.0,29.78,WSW,251,1.0,3.0,77,0.00,,,0.00,,2013-02-08 03:01:00,
2013-02-07 21:12:00,56.0,49.0,29.78,WSW,251,1.0,3.0,77,0.00,,,0.00,,2013-02-08 03:12:00,
2013-02-07 21:22:00,56.0,49.0,29.78,WSW,251,0.0,3.0,78,0.00,,,0.00,,2013-02-08 03:22:00,
2013-02-07 21:32:00,56.0,50.0,29.78,WSW,251,1.0,3.0,81,0.00,,,0.00,,2013-02-08 03:32:00,
2013-02-07 21:41:00,56.0,50.0,29.78,WSW,251,1.0,3.0,81,0.00,,,0.00,,2013-02-08 03:41:00,
2013-02-07 21:51:00,55.0,50.0,29.78,WSW,251,1.0,3.0,84,0.00,,,0.00,,2013-02-08 03:51:00,
2013-02-07 22:01:00,55.0,51.0,29.78,WSW,251,1.0,3.0,87,0.00,,,0.00,,2013-02-08 04:01:00,
2013-02-07 22:11:00,55.0,51.0,29.78,WSW,251,1.0,3.0,87,0.00,,,0.00,,2013-02-08 04:11:00,
2013-02-07 22:21:00,55.0,51.0,29.78,WSW,251,0.0,3.0,85,0.00,,,0.00,,2013-02-08 04:21:00,
2013-02-07 22:32:00,54.0,50.0,29.78,WSW,251,0.0,2.0,87,0.00,,,0.00,,2013-02-08 04:32:00,
2013-02-07 22:41:00,54.0,50.0,29.78,WSW,251,0.0,2.0,87,0.00,,,0.00,,2013-02-08 04:41:00,
2013-02-07 22:51:00,54.0,51.0,29.78,WSW,251,0.0,2.0,90,0.00,,,0.00,,2013-02-08 04:51:00,
2013-02-07 23:02:00,54.0,52.0,29.78,SW,229,0.0,5.0,93,0.04,,,0.04,,2013-02-08 05:02:00,
2013-02-07 23:11:00,54.0,52.0,29.78,SW,229,0.0,5.0,93,0.04,,,0.04,,2013-02-08 05:11:00,
2013-02-07 23:22:00,53.0,51.0,29.78,SW,230,0.0,5.0,94,0.04,,,0.04,,2013-02-08 05:22:00,
2013-02-07 23:32:00,54.0,53.0,29.79,SW,229,1.0,3.0,98,0.08,,,0.08,,2013-02-08 05:32:00,
2013-02-07 23:41:00,54.0,53.0,29.79,SW,229,1.0,3.0,98,0.08,,,0.08,,2013-02-08 05:41:00,